User: anonymous   Login
Location: Sun City Center
(27.6996°N, 82.3528°W)
Time: 05:08:35
(UTC-04:00)
Language:

Cosmos 2084 Rocket - Orbit

View from above orbital plane
View from above orbital plane
View from above satellite
View from above satellite

Ground track
Ground track

The orbit data is extracted from the following two-line orbital elements,

1 20666U 90055D   15116.46665152  .00001552  00000-0  16258-3 0  9996
2 20666 062.7860 239.4690 0095857 029.3548 331.2881 14.90769436344432
Epoch (UTC): 26 April 2015 11:11:58
Eccentricity: 0.0095857
inclination: 62.7860°
perigee height: 528 km
apogee height: 662 km
right ascension of ascending node: 239.4690°
argument of perigee: 29.3548°
revolutions per day: 14.90769436
mean anomaly at epoch: 331.2881°
orbit number at epoch: 34443

The dashed part of the orbit path shows where the satellite is in the earth's shadow,  

DLR